User: anonymous   Login
Location: Unspecified
(0.0000°N, 0.0000°E)
Time: 14:29:06
(UTC+00:00)
Language:

NUDT-PHONESAT - Orbit

View from above orbital plane
View from above orbital plane
View from above satellite
View from above satellite

Ground track
Ground track

The orbit data is extracted from the following two-line orbital elements,

1 40900U 15049B   21330.99716793  .00006039  00000-0  22190-3 0  9997
2 40900  97.4147 344.1748 0009471 288.7892 126.3340 15.28250099343632
Epoch (UTC): 26 November 2021 23:55:55
Eccentricity: 0.0009471
inclination: 97.4147°
perigee height: 474 km
apogee height: 487 km
right ascension of ascending node: 344.1748°
argument of perigee: 288.7892°
revolutions per day: 15.28250099
mean anomaly at epoch: 126.3340°
orbit number at epoch: 34363

The dashed part of the orbit path shows where the satellite is in the earth's shadow,  

DLR